AVA2802 MROC-SKBO

Flight info

Callsign AVA2802
Flight time N/A
Altitude 37000
Route TEJAR3M LIO UA317 BITOR
Aircraft B78X/H-SDE1E2E3FGHIJ2J3J4J5M1RWXY/LB1D1

Departure

Time 2026-05-01 15:08
Airport Juan Santamaría International Airport (MROC)

Arrival

Time N/A
Airport El Dorado International Airport (SKBO)
Time Latitude Longitude Altitude Speed Heading
2026-05-01 15:08 9.91750 -84.02962 13412 ft 373 kts 141°
2026-05-01 15:08 9.89654 -84.01314 14004 ft 390 kts 141°
2026-05-01 15:09 9.87495 -83.99590 14798 ft 397 kts 141°
2026-05-01 15:09 9.85378 -83.97779 15618 ft 402 kts 133°
2026-05-01 15:09 9.83756 -83.95475 16492 ft 406 kts 117°
2026-05-01 15:09 9.82775 -83.92788 17308 ft 411 kts 102°
2026-05-01 15:10 9.82531 -83.89914 18094 ft 416 kts 88°
2026-05-01 15:10 9.82976 -83.83989 19391 ft 427 kts 86°
2026-05-01 15:10 9.83214 -83.80995 19973 ft 433 kts 85°
2026-05-01 15:11 9.83459 -83.77875 20574 ft 439 kts 85°
2026-05-01 15:11 9.83896 -83.71662 21745 ft 450 kts 86°
2026-05-01 15:11 9.84105 -83.68498 22303 ft 456 kts 86°
2026-05-01 15:12 9.84334 -83.65283 22857 ft 461 kts 85°
2026-05-01 15:12 9.85003 -83.58729 23854 ft 471 kts 78°
2026-05-01 15:12 9.85677 -83.55487 24287 ft 476 kts 77°
2026-05-01 15:13 9.87706 -83.45462 25615 ft 488 kts 78°
2026-05-01 15:14 9.89078 -83.38727 26483 ft 495 kts 78°
2026-05-01 15:14 9.89770 -83.35296 26915 ft 498 kts 78°
2026-05-01 15:14 9.91162 -83.28345 27750 ft 506 kts 78°
2026-05-01 15:15 9.92583 -83.21312 28540 ft 513 kts 79°
2026-05-01 15:15 9.94014 -83.14169 29329 ft 520 kts 79°
2026-05-01 15:16 9.95448 -83.06970 29944 ft 529 kts 81°
2026-05-01 15:16 9.95217 -82.99593 29960 ft 526 kts 104°
2026-05-01 15:18 9.89661 -82.81969 29950 ft 526 kts 109°
2026-05-01 15:19 9.85149 -82.67929 29933 ft 524 kts 109°
2026-05-01 15:19 9.81753 -82.57374 29930 ft 525 kts 109°
2026-05-01 15:20 9.78170 -82.46941 29939 ft 525 kts 110°
2026-05-01 15:21 9.75717 -82.39977 29923 ft 523 kts 111°
2026-05-01 15:21 9.73315 -82.32996 29918 ft 524 kts 110°
2026-05-01 15:22 9.69677 -82.22572 29916 ft 524 kts 110°
2026-05-01 15:22 9.67271 -82.15607 29914 ft 524 kts 110°
2026-05-01 15:23 9.64831 -82.08626 29916 ft 525 kts 110°
2026-05-01 15:23 9.62418 -82.01676 29913 ft 525 kts 110°
2026-05-01 15:24 9.59984 -81.94706 29919 ft 526 kts 110°
2026-05-01 15:24 9.57562 -81.87749 29913 ft 525 kts 110°
2026-05-01 15:25 9.55128 -81.80781 29925 ft 526 kts 110°
2026-05-01 15:25 9.52688 -81.73788 29915 ft 525 kts 110°
2026-05-01 15:26 9.50259 -81.66842 29917 ft 526 kts 111°
2026-05-01 15:26 9.47813 -81.59844 29918 ft 525 kts 111°
2026-05-01 15:27 9.45388 -81.52917 29919 ft 525 kts 111°
2026-05-01 15:28 9.41730 -81.42471 29905 ft 525 kts 111°
2026-05-01 15:28 9.39286 -81.35500 29907 ft 525 kts 111°
2026-05-01 15:29 9.36844 -81.28539 30418 ft 531 kts 111°
2026-05-01 15:29 9.35601 -81.24996 30768 ft 533 kts 111°
2026-05-01 15:29 9.33093 -81.17858 31479 ft 535 kts 111°
2026-05-01 15:30 9.30634 -81.10855 32493 ft 531 kts 111°
2026-05-01 15:31 9.25700 -80.96831 34338 ft 526 kts 111°
2026-05-01 15:31 9.23257 -80.89899 35021 ft 527 kts 111°
2026-05-01 15:32 9.20791 -80.82921 35666 ft 529 kts 111°
2026-05-01 15:32 9.18316 -80.75937 36275 ft 530 kts 112°
2026-05-01 15:33 9.14576 -80.65413 36895 ft 521 kts 112°
2026-05-01 15:34 9.10977 -80.55278 36887 ft 510 kts 112°